Notices

What's New in latest Release from April 7th, 2021:

- Updated Glossary, including Speed of Maximum Gust, and Total Hourly Precipitation

- Updated national and regional climate services offices contacts and prices information

- Addition of station inventory lists for 1981-2010, 1971-2000, and 1961-1990 Normals.

If you haven't already, please take our survey and provide feedback about our website: https://eccc.sondage-survey.ca/f/LanguageSelection.aspx?s=442ca660-fcf1-47c0-95a9-59707d6fd709

Hourly Data Report for April 27, 2020

CLYDE RIVER A
NUNAVUT
Current Station Operator: NAVCAN

70°29'09.000" N
68°31'01.000" W
26.50 m
2400804
71090
YCY

Download Data

Hourly Data (April 2020)
Hourly Data Report for April 27, 2020
TIME
LST
Temp Definition
°C
Dew Point Definition
°C
Rel Hum Definition
%
Precip. Amount Definition
mm

Wind Dir Definition
10's deg

Wind Spd Definition
km/h
Visibility Definition
km
Stn Press Definition
kPa
Hmdx Definition


Wind Chill Definition


Weather Definition


00:00 -14.0 -14.7 94 0.0 32 21 1.2 99.67   -23 Snow
01:00 -13.1 -13.9 94 0.0 31 17 0.8 99.70   -21 Heavy Snow
02:00 -13.1 -14.0 93 0.0 28 5 16.1 99.73   -16 LegendNANA
03:00 -14.6 -16.2 88 0.0 30 5 12.9 99.78   -18 LegendNANA
04:00 -12.6 -13.5 93 0.0 35 5 0.4 99.81   -16 Freezing Fog
05:00 -11.7 -12.4 95 0.0 LegendMM 4 11.3 99.84   -14 LegendNANA
06:00 -11.1 -11.9 94 0.0 25 9 16.1 99.86   -16 LegendNANA
07:00 -10.7 -11.4 95 0.0 24 8 9.7 99.88   -15 Snow
08:00 -11.0 -11.7 95 0.0 11 4 16.1 99.89   -13 Snow
09:00 -10.1 -10.8 95 0.0   0 16.1 99.92     LegendNANA
10:00 -9.7 -10.2 96 0.0 14 5 16.1 99.94   -13 Snow
11:00 -9.7 -10.2 96 0.0 14 9 12.9 99.96   -15 Snow
12:00 -9.3 -9.8 96 0.0 14 8 6.4 100.00   -14 Snow
13:00 -9.0 -9.5 96 0.0 13 9 16.1 100.06   -14 Snow
14:00 -8.9 -10.1 91 0.0 14 11 16.1 100.11   -14 Snow
15:00 -9.1 -10.7 89 0.0 14 5 16.1 100.17   -12 Snow
16:00 -9.2 -11.8 81 0.0 33 17 4.8 100.23   -16 Snow
17:00 -11.5 -13.8 83 0.0 36 13 16.1 100.29   -18 LegendNANA
18:00 -12.0 -14.1 85 0.0 22 8 16.1 100.37   -17 LegendNANA
19:00 -11.2 -14.8 75 0.0 32 15 16.1 100.45   -18 LegendNANA
20:00 -15.1 -17.4 83 0.0 35 9 16.1 100.54   -21 LegendNANA
21:00 -16.1 -18.7 81 0.0 29 13 16.1 100.64   -24 LegendNANA
22:00 -12.8 -16.3 75 0.0 27 5 16.1 100.70   -16 LegendNANA
23:00 -16.7 -19.7 78 0.0 32 21 16.1 100.74   -27 LegendNANA

Notes on Data Quality.

Legend

  • E = Estimated
  • M = Missing
  • NA = Not Available*
  • [empty] = Indicates an unobserved value
Date modified: